| time (UTC) | temp F | wind direction | speed MPH | gust MPH | rain 1hr in | rain 24hr in | rain mn in | humidity % | barometer mb |
| 20260904014636 | 73 | 233 | 6.0 | 9.0 | 0.00 | 0.00 | 0.00 | 30 | 1010.2 |
| 20260904013052 | 74 | 293 | 5.0 | 10.0 | 0.00 | 0.00 | 0.00 | 29 | 1010.2 |
| 20260904011604 | 75 | 309 | 6.0 | 12.0 | 0.00 | 0.00 | 0.00 | 30 | 1010.1 |
| 20260904010100 | 77 | 289 | 3.0 | 10.0 | 0.00 | 0.00 | 0.00 | 29 | 1010.0 |
| 20260904004552 | 77 | 310 | 6.0 | 14.0 | 0.00 | 0.00 | 0.00 | 28 | 1009.8 |
| 20260904003059 | 79 | 259 | 7.0 | 13.0 | 0.00 | 0.00 | 0.00 | 26 | 1009.8 |
| 20260904001551 | 81 | 210 | 9.0 | 16.0 | 0.00 | 0.00 | 0.00 | 22 | 1009.5 |
| 20260903234546 | 80 | 233 | 3.0 | 19.0 | 0.00 | 0.00 | 0.00 | 26 | 1009.3 |
| 20260903233109 | 79 | 297 | 4.0 | 17.0 | 0.00 | 0.00 | 0.00 | 25 | 1009.3 |
| 20260903231549 | 77 | 255 | 4.0 | 12.0 | 0.00 | 0.00 | 0.00 | 27 | 1009.3 |
| 20260903230054 | 77 | 288 | 3.0 | 20.0 | 0.00 | 0.00 | 0.00 | 27 | 1009.2 |
| 20260903224544 | 77 | 251 | 5.0 | 14.0 | 0.00 | 0.00 | 0.00 | 28 | 1009.2 |
| 20260903223046 | 77 | 288 | 4.0 | 7.0 | 0.00 | 0.00 | 0.00 | 31 | 1009.4 |
| 20260903221551 | 75 | 302 | 4.0 | 13.0 | 0.00 | 0.00 | 0.00 | 31 | 1009.4 |
| 20260903220114 | 75 | 302 | 3.0 | 7.0 | 0.00 | 0.00 | 0.00 | 34 | 1009.3 |
| 20260903214541 | 76 | 257 | 3.0 | 13.0 | 0.00 | 0.00 | 0.00 | 30 | 1009.4 |
| 20260903213051 | 76 | 324 | 4.0 | 10.0 | 0.00 | 0.00 | 0.00 | 29 | 1009.4 |
| 20260903211553 | 75 | 265 | 5.0 | 13.0 | 0.00 | 0.00 | 0.00 | 33 | 1009.5 |
| 20260903210049 | 75 | 244 | 5.0 | 9.0 | 0.00 | 0.00 | 0.00 | 33 | 1009.6 |
| 20260903204553 | 74 | 250 | 6.0 | 12.0 | 0.00 | 0.00 | 0.00 | 33 | 1009.7 |
| 20260903203104 | 74 | 288 | 5.0 | 12.0 | 0.00 | 0.00 | 0.00 | 35 | 1009.8 |
| 20260903201550 | 74 | 228 | 8.0 | 18.0 | 0.00 | 0.00 | 0.00 | 32 | 1009.7 |
| 20260903200047 | 73 | 322 | 7.0 | 17.0 | 0.00 | 0.00 | 0.00 | 31 | 1009.7 |
| 20260903194557 | 73 | 305 | 8.0 | 23.0 | 0.00 | 0.00 | 0.00 | 33 | 1009.7 |
| 20260903193052 | 73 | 287 | 7.0 | 18.0 | 0.00 | 0.00 | 0.00 | 32 | 1009.9 |
| 20260903191551 | 74 | 255 | 9.0 | 22.0 | 0.00 | 0.00 | 0.00 | 31 | 1010.1 |
| 20260903190044 | 73 | 339 | 14.0 | 25.0 | 0.00 | 0.00 | 0.00 | 31 | 1010.1 |
| 20260903184552 | 73 | 285 | 10.0 | 22.0 | 0.00 | 0.00 | 0.00 | 33 | 1010.2 |
| 20260903183050 | 72 | 305 | 17.0 | 23.0 | 0.00 | 0.00 | 0.00 | 33 | 1010.3 |
| 20260903181543 | 72 | 269 | 12.0 | 21.0 | 0.00 | 0.00 | 0.00 | 33 | 1010.4 |
| 20260903180048 | 72 | 299 | 8.0 | 23.0 | 0.00 | 0.00 | 0.00 | 34 | 1010.6 |
| 20260903174550 | 71 | 274 | 8.0 | 21.0 | 0.00 | 0.00 | 0.00 | 33 | 1010.6 |
| 20260903173048 | 70 | 306 | 10.0 | 19.0 | 0.00 | 0.00 | 0.00 | 35 | 1010.9 |
| 20260903171549 | 70 | 319 | 11.0 | 18.0 | 0.00 | 0.00 | 0.00 | 34 | 1011.3 |
| 20260903170054 | 69 | 293 | 9.0 | 18.0 | 0.00 | 0.00 | 0.00 | 34 | 1011.1 |
| 20260903164549 | 69 | 211 | 8.0 | 25.0 | 0.00 | 0.00 | 0.00 | 36 | 1011.0 |
| 20260903163043 | 68 | 315 | 9.0 | 17.0 | 0.00 | 0.00 | 0.00 | 35 | 1011.1 |
| 20260903161557 | 68 | 267 | 8.0 | 18.0 | 0.00 | 0.00 | 0.00 | 35 | 1011.1 |
| 20260903160051 | 67 | 252 | 10.0 | 18.0 | 0.00 | 0.00 | 0.00 | 36 | 1011.1 |
| 20260903154551 | 67 | 311 | 7.0 | 17.0 | 0.00 | 0.00 | 0.00 | 38 | 1011.3 |
| 20260903153047 | 66 | 337 | 7.0 | 17.0 | 0.00 | 0.00 | 0.00 | 38 | 1011.4 |
| 20260903151549 | 65 | 283 | 8.0 | 15.0 | 0.00 | 0.00 | 0.00 | 39 | 1011.6 |
| 20260903150104 | 65 | 293 | 8.0 | 15.0 | 0.00 | 0.00 | 0.00 | 40 | 1011.5 |
| 20260903144546 | 64 | 245 | 7.0 | 14.0 | 0.00 | 0.00 | 0.00 | 41 | 1011.6 |
| 20260903143049 | 64 | 252 | 5.0 | 9.0 | 0.00 | 0.00 | 0.00 | 41 | 1011.4 |
| 20260903141546 | 62 | 282 | 6.0 | 10.0 | 0.00 | 0.00 | 0.00 | 41 | 1011.5 |
| 20260903140044 | 61 | 256 | 3.0 | 16.0 | 0.00 | 0.00 | 0.00 | 44 | 1011.3 |
| 20260903134608 | 61 | 255 | 4.0 | 12.0 | 0.00 | 0.00 | 0.00 | 44 | 1011.2 |
| 20260903133111 | 59 | 232 | 4.0 | 8.0 | 0.00 | 0.00 | 0.00 | 45 | 1011.1 |
| 20260903131552 | 58 | 297 | 3.0 | 7.0 | 0.00 | 0.00 | 0.00 | 44 | 1010.8 |
| 20260903130056 | 54 | 268 | 2.0 | 6.0 | 0.00 | 0.00 | 0.00 | 51 | 1010.5 |
| 20260903124559 | 54 | 299 | 1.0 | 4.0 | 0.00 | 0.00 | 0.00 | 58 | 1010.3 |
| 20260903123047 | 53 | 133 | 1.0 | 2.0 | 0.00 | 0.00 | 0.00 | 57 | 1010.1 |
| 20260903121553 | 52 | 134 | 1.0 | 3.0 | 0.00 | 0.00 | 0.00 | 63 | 1009.9 |
| 20260903120054 | 51 | 315 | 0.0 | 5.0 | 0.00 | 0.00 | 0.00 | 66 | 1009.7 |
| 20260903114552 | 52 | 0 | 0.0 | 9.0 | 0.00 | 0.00 | 0.00 | 66 | 1009.5 |
| 20260903113056 | 54 | 161 | 4.0 | 6.0 | 0.00 | 0.00 | 0.00 | 55 | 1009.5 |
| 20260903111545 | 52 | 96 | 1.0 | 6.0 | 0.00 | 0.00 | 0.00 | 60 | 1009.6 |
| 20260903110053 | 50 | 316 | 0.0 | 1.0 | 0.00 | 0.00 | 0.00 | 72 | 1009.6 |
| 20260903104545 | 50 | 0 | 0.0 | 5.0 | 0.00 | 0.00 | 0.00 | 75 | 1009.5 |
| 20260903103043 | 51 | 0 | 2.0 | 4.0 | 0.00 | 0.00 | 0.00 | 73 | 1009.7 |
| 20260903101554 | 51 | 0 | 0.0 | 1.0 | 0.00 | 0.00 | 0.00 | 61 | 1009.6 |
| 20260903100046 | 51 | 134 | 2.0 | 3.0 | 0.00 | 0.00 | 0.00 | 63 | 1009.8 |
| 20260903094555 | 50 | 86 | 0.0 | 3.0 | 0.00 | 0.00 | 0.00 | 70 | 1009.7 |
| 20260903093055 | 50 | 15 | 0.0 | 3.0 | 0.00 | 0.00 | 0.00 | 76 | 1009.7 |
| 20260903091606 | 49 | 317 | 0.0 | 0.0 | 0.00 | 0.00 | 0.00 | 69 | 1009.6 |
| 20260903090046 | 49 | 0 | 0.0 | 3.0 | 0.00 | 0.00 | 0.00 | 70 | 1009.5 |
| 20260903084554 | 53 | 126 | 0.0 | 2.0 | 0.00 | 0.00 | 0.00 | 53 | 1009.4 |
| 20260903083048 | 53 | 153 | 1.0 | 4.0 | 0.00 | 0.00 | 0.00 | 54 | 1009.4 |
| 20260903081549 | 52 | 241 | 1.0 | 3.0 | 0.00 | 0.00 | 0.00 | 60 | 1009.5 |
| 20260903080049 | 53 | 162 | 1.0 | 4.0 | 0.00 | 0.00 | 0.00 | 60 | 1009.4 |
| 20260903074555 | 54 | 285 | 0.0 | 3.0 | 0.00 | 0.00 | 0.00 | 55 | 1009.7 |
| 20260903073047 | 54 | 167 | 1.0 | 3.0 | 0.00 | 0.00 | 0.00 | 57 | 1009.6 |
| 20260903071547 | 54 | 58 | 0.0 | 1.0 | 0.00 | 0.00 | 0.00 | 68 | 1009.5 |
| 20260903070043 | 55 | 293 | 1.0 | 2.0 | 0.00 | 0.00 | 0.00 | 50 | 1009.3 |
| 20260903064549 | 56 | 158 | 0.0 | 3.0 | 0.00 | 0.00 | 0.00 | 46 | 1009.2 |
| 20260903063104 | 56 | 73 | 0.0 | 2.0 | 0.00 | 0.00 | 0.00 | 49 | 1009.3 |
| 20260903061545 | 56 | 111 | 2.0 | 3.0 | 0.00 | 0.00 | 0.00 | 46 | 1009.1 |
| 20260903060056 | 56 | 0 | 0.0 | 2.0 | 0.00 | 0.00 | 0.00 | 52 | 1009.1 |
| 20260903054549 | 58 | 103 | 1.0 | 3.0 | 0.00 | 0.00 | 0.00 | 45 | 1009.3 |
| 20260903053109 | 59 | 0 | 0.0 | 2.0 | 0.00 | 0.00 | 0.00 | 48 | 1009.2 |
| 20260903051547 | 63 | 183 | 0.0 | 3.0 | 0.00 | 0.00 | 0.00 | 30 | 1009.2 |
| 20260903050100 | 62 | 0 | 0.0 | 3.0 | 0.00 | 0.00 | 0.00 | 32 | 1009.4 |
| 20260903044557 | 62 | 78 | 0.0 | 1.0 | 0.00 | 0.00 | 0.00 | 35 | 1009.3 |
| 20260903043049 | 63 | 0 | 0.0 | 1.0 | 0.00 | 0.00 | 0.00 | 30 | 1009.2 |
| 20260903041554 | 64 | 263 | 1.0 | 5.0 | 0.00 | 0.00 | 0.00 | 30 | 1009.3 |
| 20260903040049 | 66 | 276 | 3.0 | 6.0 | 0.00 | 0.00 | 0.00 | 29 | 1009.1 |
| 20260903034543 | 67 | 233 | 4.0 | 7.0 | 0.00 | 0.00 | 0.00 | 26 | 1009.0 |
| 20260903033042 | 67 | 248 | 5.0 | 9.0 | 0.00 | 0.00 | 0.00 | 25 | 1008.8 |
| 20260903031541 | 68 | 245 | 6.0 | 10.0 | 0.00 | 0.00 | 0.00 | 25 | 1008.8 |
| 20260903030049 | 68 | 257 | 5.0 | 11.0 | 0.00 | 0.00 | 0.00 | 25 | 1008.7 |
| 20260903024545 | 70 | 252 | 6.0 | 11.0 | 0.00 | 0.00 | 0.00 | 24 | 1008.7 |
| 20260903023044 | 70 | 276 | 4.0 | 7.0 | 0.00 | 0.00 | 0.00 | 21 | 1008.7 |
| 20260903021550 | 70 | 259 | 2.0 | 5.0 | 0.00 | 0.00 | 0.00 | 23 | 1008.6 |
| 20260903020048 | 71 | 291 | 4.0 | 6.0 | 0.00 | 0.00 | 0.00 | 27 | 1008.4 |